UOSAT-12 - Orbit

View from above orbital plane
View from above orbital plane
View from above satellite
View from above satellite

Ground track
Ground track

The orbit data is extracted from the following two-line orbital elements,

1 25693U 99021A   13144.15044627  .00000356  00000-0  66302-4 0  1546
2 25693 064.5581 019.2926 0015205 333.1709 169.9608 14.79504877760356
Epoch (UTC): 24 May 2013 03:36:38
Eccentricity: 0.0015205
inclination: 64.5581°
perigee height: 620 km
apogee height: 641 km
right ascension of ascending node: 19.2926°
argument of perigee: 333.1709°
revolutions per day: 14.79504877
mean anomaly at epoch: 169.9608°
orbit number at epoch: 76035

The dashed part of the orbit path shows where the satellite is in the earth's shadow,  

Developed and maintained by Chris Peat, Heavens-Above GmbH. Please read the updated FAQ before sending e-mail. Imprint. DLR